CZ-2C DEB

Satellite information

Favourite Embed

Satellite Type and Status

DEBRISIN ORBIT

Key statistics

Satellite CZ-2C DEB at a glance.

Uptime

4048

Days in orbit

Revolutions

≈ 14.3

Per day

Orbit

SSO

Sun Synchronous Orbit

Inclination

97.9

Latest

Satellite identification and parameters

Extended collection of information and parameters for CZ-2C DEB.

Object identification

Identified? True

Debris? True

Object name: CZ-2C DEB

International designator: 2014-059E

Object number (NORAD): 40265

Object ID (CCSDS): 40265

Country: PEOPLES REPUBLIC OF CHINA (PRC)

Current information (Y/N): Y

RCS size: SMALL

Orbital parameters

Period: 100.609 minutes

Inclination: 97.9418 deg

SMA: 7165.592 km

Apoapsis: 906.14 km

Periapsis: 668.774 km

RAAN: 28.9727 deg

Eccentricy: 0.01656289

Argument of periapsis: 93.2836 deg

Mean anomaly: 268.7312 deg

Mean motion: 14.31280111 rev/day

Mean motion (dot): 0.00003596 rev/day2

B* drag term: 0.0011817547 1/REarth

Two-line elements (TLE)

Creation date: Oct. 28, 2025, 2:18 a.m.

Reference frame: TEME

Reference center: EARTH

Epoch: Oct. 27, 2025, 7:27 p.m. UTC

TLE line 0: 0 CZ-2C DEB

TLE line 1: 1 40265U 14059E 25300.81097708 .00003596 00000-0 11818-2 0 9990

TLE line 2: 2 40265 97.9418 28.9727 0165629 93.2836 268.7312 14.31280111574908

Live tracking on map

Real-time ground track for satellite CZ-2C DEB.

In-orbit conjunctions

A list of the most updated potential collisions computed for object CZ-2C DEB.

Target Orbit TCA Probability of collision Miss distance Type
CZ-6A DEB LEO 2024-12-31 19:04:48 0.0001015633 310.0 (m) DEBRIS

Associated space launch

CZ-2C DEB was lifted into orbit during the mission ‘Long March 2C | Shijian 11-07’, on board a Long March 2 space rocket.

The launch took place on Sept. 28, 2014, 5:13 a.m. from Launch Area 4 (SLS-2 / 603).

For more information about the launch, click the button.

Launch to space Long March 2C | Shijian 11-07
Long March 2C | Shijian 11-07

Agency: N/A

Status: Launch Successful

Launch date: Sept. 28, 2014, 5:13 a.m. UTC

Rocket: Long March 2

Launch pad: Launch Area 4 (SLS-2 / 603)

Location: Jiuquan Satellite Launch Center, People's Republic of China

...

Latest news about this satellite

There are no fresh news available about this satellite. Check back as we update our databases every day.


Newsletter sign-up

Weekly statistics, charts and insights to help you stay on top of the space industry.